,,Stat5,,Stat1,,Stat2,,Stat3,,Stat4,,Wind1,,Wind1,
time,status,PA1M_AVG,status,PR1M_SUM,status,RH1M_AVG,status,SR1M_AVG,status,TA1M_AVG,status,W1dAve1m,status,W1sAve1m,
2001-02-15, 00:00:00,VALID,918.317,VALID,0,VALID,95.9273,VALID,-0.0169808,VALID,19.9808,VALID,140,VALID,0,
2001-02-15, 00:01:00,VALID,918.289,VALID,0,VALID,95.041,VALID,-0.0339617,VALID,19.9132,VALID,140,VALID,0.0116004,
2001-02-15, 00:02:00,VALID,918.253,VALID,0,VALID,95.4492,VALID,0,VALID,19.865,VALID,138,VALID,0.42732,
2001-02-15, 00:03:00,VALID,918.225,VALID,0,VALID,95.9235,VALID,0,VALID,19.8585,VALID,138,VALID,0.167535,
2001-02-15, 00:04:00,VALID,918.196,VALID,0,VALID,96.3355,VALID,-0.0169808,VALID,19.868,VALID,138,VALID,0,
2001-02-15, 00:05:00,VALID,918.169,VALID,0,VALID,96.5682,VALID,0.0169808,VALID,19.8839,VALID,144,VALID,0,
2001-02-15, 00:06:00,VALID,918.155,VALID,0,VALID,96.4042,VALID,-0.0339617,VALID,19.9169,VALID,220,VALID,0,
2001-02-15, 00:07:00,VALID,918.122,VALID,0,VALID,95.8421,VALID,0,VALID,19.8774,VALID,228,VALID,0.550676,
2001-02-15, 00:08:00,VALID,918.114,VALID,0,VALID,95.7658,VALID,0.0169808,VALID,19.8553,VALID,223,VALID,0.85259,
2001-02-15, 00:09:00,VALID,918.097,VALID,0,VALID,95.8307,VALID,0.0169808,VALID,19.8359,VALID,216,VALID,0.738393,
2001-02-15, 00:10:00,VALID,918.085,VALID,0,VALID,96.0163,VALID,0,VALID,19.816,VALID,205,VALID,0.693462,
2001-02-15, 00:11:00,VALID,918.083,VALID,0,VALID,96.1269,VALID,0.0169808,VALID,19.784,VALID,195,VALID,0.71224,
2001-02-15, 00:12:00,VALID,918.072,VALID,0,VALID,96.3393,VALID,0.0169808,VALID,19.7576,VALID,192,VALID,0.774877,
2001-02-15, 00:13:00,VALID,918.064,VALID,0,VALID,96.5707,VALID,0,VALID,19.7579,VALID,181,VALID,0.631611,
2001-02-15, 00:14:00,VALID,918.054,VALID,0,VALID,96.1702,VALID,0,VALID,19.7196,VALID,160,VALID,0.716992,
2001-02-15, 00:15:00,VALID,918.057,VALID,0,VALID,96.3457,VALID,0.0169808,VALID,19.7032,VALID,158,VALID,0.781461,
2001-02-15, 00:16:00,VALID,918.057,VALID,0,VALID,96.4042,VALID,0.0169808,VALID,19.7032,VALID,147,VALID,0.677539,
2001-02-15, 00:17:00,VALID,918.061,VALID,0,VALID,96.0176,VALID,0,VALID,19.6711,VALID,122,VALID,0.811498,
2001-02-15, 00:18:00,VALID,918.06,VALID,0,VALID,96.0112,VALID,0.0339617,VALID,19.6292,VALID,121,VALID,0.875411,
2001-02-15, 00:19:00,VALID,918.034,VALID,0,VALID,96.422,VALID,0.0339617,VALID,19.6187,VALID,135,VALID,0.802484,
2001-02-15, 00:20:00,VALID,917.99,VALID,0,VALID,96.511,VALID,0,VALID,19.6518,VALID,139,VALID,0.629112,
2001-02-15, 00:21:00,VALID,917.96,VALID,0,VALID,96.324,VALID,0,VALID,19.652,VALID,185,VALID,0.605168,
2001-02-15, 00:22:00,VALID,917.906,VALID,0,VALID,96.497,VALID,0,VALID,19.6289,VALID,211,VALID,0.741602,
2001-02-15, 00:23:00,VALID,917.883,VALID,0,VALID,96.53,VALID,0.0169808,VALID,19.6195,VALID,191,VALID,0.709459,
2001-02-15, 00:24:00,VALID,917.847,VALID,0,VALID,96.8416,VALID,0,VALID,19.6195,VALID,193,VALID,0.762305,
2001-02-15, 00:25:00,VALID,917.821,VALID,0,VALID,96.8899,VALID,-0.0169808,VALID,19.6162,VALID,180,VALID,0.771434,
2001-02-15, 00:26:00,VALID,917.801,VALID,0,VALID,96.6852,VALID,0,VALID,19.6003,VALID,208,VALID,0.664679,
2001-02-15, 00:27:00,VALID,917.787,VALID,0,VALID,96.8683,VALID,0,VALID,19.5807,VALID,217,VALID,0.842949,
2001-02-15, 00:28:00,VALID,917.767,VALID,0,VALID,97.1697,VALID,0,VALID,19.5971,VALID,218,VALID,1.05859,
2001-02-15, 00:29:00,VALID,917.742,VALID,0,VALID,97.3731,VALID,0,VALID,19.5968,VALID,229,VALID,1.33754,
2001-02-15, 00:30:00,VALID,917.732,VALID,0,VALID,97.5283,VALID,-0.0169808,VALID,19.5968,VALID,228,VALID,1.57813,
2001-02-15, 00:31:00,VALID,917.716,VALID,0,VALID,97.6923,VALID,-0.0169808,VALID,19.5844,VALID,232,VALID,1.75253,
2001-02-15, 00:32:00,VALID,917.728,VALID,0,VALID,97.8004,VALID,-0.0339617,VALID,19.5879,VALID,231,VALID,1.21895,
2001-02-15, 00:33:00,VALID,917.716,VALID,0,VALID,97.8462,VALID,-0.0169808,VALID,19.5683,VALID,227,VALID,1.35377,
2001-02-15, 00:34:00,VALID,917.698,VALID,0,VALID,97.9186,VALID,0,VALID,19.5489,VALID,228,VALID,1.36287,
2001-02-15, 00:35:00,VALID,917.702,VALID,0,VALID,97.9962,VALID,-0.0169808,VALID,19.5196,VALID,224,VALID,1.1895,
2001-02-15, 00:36:00,VALID,917.696,VALID,0,VALID,98.042,VALID,-0.0169808,VALID,19.4994,VALID,201,VALID,0.751234,
2001-02-15, 00:37:00,VALID,917.713,VALID,0,VALID,98.0572,VALID,-0.0169808,VALID,19.4741,VALID,189,VALID,0.507412,
2001-02-15, 00:38:00,VALID,917.73,VALID,0,VALID,98.0572,VALID,-0.0509425,VALID,19.4582,VALID,175,VALID,0.961719,
2001-02-15, 00:39:00,VALID,917.74,VALID,0,VALID,97.9059,VALID,-0.0509425,VALID,19.4555,VALID,157,VALID,1.13091,
2001-02-15, 00:40:00,VALID,917.752,VALID,0,VALID,97.5575,VALID,-0.0339617,VALID,19.4878,VALID,167,VALID,0.998047,
2001-02-15, 00:41:00,VALID,917.768,VALID,0,VALID,97.0311,VALID,-0.0339617,VALID,19.5263,VALID,169,VALID,1.05569,
2001-02-15, 00:42:00,VALID,917.763,VALID,0,VALID,96.4118,VALID,-0.0339617,VALID,19.5588,VALID,179,VALID,0.740748,
2001-02-15, 00:43:00,VALID,917.753,VALID,0,VALID,95.8803,VALID,-0.0339617,VALID,19.5842,VALID,167,VALID,0.861579,
2001-02-15, 00:44:00,VALID,917.732,VALID,0,VALID,95.5967,VALID,-0.0339617,VALID,19.5971,VALID,178,VALID,0.474918,
2001-02-15, 00:45:00,VALID,917.722,VALID,0,VALID,95.4644,VALID,-0.0339617,VALID,19.6299,VALID,225,VALID,0.353766,
2001-02-15, 00:46:00,VALID,917.715,VALID,0,VALID,95.2623,VALID,-0.0169808,VALID,19.6197,VALID,218,VALID,0.720703,
2001-02-15, 00:47:00,VALID,917.71,VALID,0,VALID,95.0359,VALID,-0.0339617,VALID,19.6301,VALID,184,VALID,0.735008,
2001-02-15, 00:48:00,VALID,917.71,VALID,0,VALID,94.9927,VALID,-0.0169808,VALID,19.6436,VALID,201,VALID,0.181641,
2001-02-15, 00:49:00,VALID,917.718,VALID,0,VALID,95.027,VALID,-0.0339617,VALID,19.6629,VALID,228,VALID,0.653446,
2001-02-15, 00:50:00,VALID,917.726,VALID,0,VALID,95.2216,VALID,-0.0679233,VALID,19.6528,VALID,225,VALID,1.27056,
2001-02-15, 00:51:00,VALID,917.742,VALID,0,VALID,95.2216,VALID,-0.0509425,VALID,19.6364,VALID,222,VALID,1.20733,
2001-02-15, 00:52:00,VALID,917.755,VALID,0,VALID,95.219,VALID,-0.0339617,VALID,19.6167,VALID,210,VALID,0.749178,
2001-02-15, 00:53:00,VALID,917.772,VALID,0,VALID,95.1745,VALID,-0.0849042,VALID,19.6142,VALID,207,VALID,0.600761,
2001-02-15, 00:54:00,VALID,917.79,VALID,0,VALID,95.2165,VALID,-0.0169808,VALID,19.6075,VALID,198,VALID,0.85918,
2001-02-15, 00:55:00,VALID,917.788,VALID,0,VALID,95.1453,VALID,-0.0169808,VALID,19.6202,VALID,193,VALID,0.856841,
2001-02-15, 00:56:00,VALID,917.802,VALID,0,VALID,94.8261,VALID,-0.0169808,VALID,19.6585,VALID,187,VALID,0.744336,
2001-02-15, 00:57:00,VALID,917.811,VALID,0,VALID,94.3556,VALID,-0.0169808,VALID,19.7044,VALID,166,VALID,0.870393,
2001-02-15, 00:58:00,VALID,917.838,VALID,0,VALID,93.7974,VALID,-0.0509425,VALID,19.7308,VALID,117,VALID,0.629523,
2001-02-15, 00:59:00,VALID,917.847,VALID,0,VALID,93.585,VALID,-0.0509425,VALID,19.7136,VALID,115,VALID,0.580329,
2001-02-15, 01:00:00,VALID,917.866,VALID,0,VALID,93.5697,VALID,-0.0169808,VALID,19.7144,VALID,125,VALID,0.206826,
2001-02-15, 01:01:00,VALID,917.882,VALID,0,VALID,93.613,VALID,-0.0169808,VALID,19.7141,VALID,122,VALID,0.230369,
2001-02-15, 01:02:00,VALID,917.9,VALID,0,VALID,93.5176,VALID,-0.0509425,VALID,19.7308,VALID,123,VALID,0.335742,
2001-02-15, 01:03:00,VALID,917.913,VALID,0,VALID,93.2811,VALID,-0.0339617,VALID,19.7171,VALID,122,VALID,0.431588,
2001-02-15, 01:04:00,VALID,917.93,VALID,0,VALID,93.1031,VALID,-0.0169808,VALID,19.6719,VALID,107,VALID,0.571875,
2001-02-15, 01:05:00,VALID,917.944,VALID,0,VALID,93.5736,VALID,-0.0169808,VALID,19.6433,VALID,104,VALID,0.783854,
2001-02-15, 01:06:00,VALID,917.947,VALID,0,VALID,93.8152,VALID,0,VALID,19.6108,VALID,99,VALID,0.848067,
2001-02-15, 01:07:00,VALID,917.936,VALID,0,VALID,93.8508,VALID,-0.0339617,VALID,19.5757,VALID,100,VALID,0.754006,
2001-02-15, 01:08:00,VALID,917.936,VALID,0,VALID,94.1776,VALID,-0.0169808,VALID,19.5556,VALID,95,VALID,0.733964,
2001-02-15, 01:09:00,VALID,917.943,VALID,0,VALID,94.3327,VALID,-0.0169808,VALID,19.527,VALID,86,VALID,0.995393,
2001-02-15, 01:10:00,VALID,917.946,VALID,0,VALID,94.9444,VALID,-0.0339617,VALID,19.5074,VALID,76,VALID,0.733789,
2001-02-15, 01:11:00,VALID,917.963,VALID,0,VALID,95.5458,VALID,0,VALID,19.497,VALID,68,VALID,0.523438,
2001-02-15, 01:12:00,VALID,917.995,VALID,0,VALID,95.7556,VALID,-0.0509425,VALID,19.4882,VALID,64,VALID,0.103125,
2001-02-15, 01:13:00,VALID,918.01,VALID,0,VALID,95.6476,VALID,-0.0509425,VALID,19.4718,VALID,63,VALID,0,
2001-02-15, 01:14:00,VALID,918.017,VALID,0,VALID,95.7417,VALID,-0.0509425,VALID,19.4589,VALID,323,VALID,0.316201,
2001-02-15, 01:15:00,VALID,918.043,VALID,0,VALID,96.0176,VALID,-0.0339617,VALID,19.4656,VALID,319,VALID,0.713341,
2001-02-15, 01:16:00,VALID,918.05,VALID,0,VALID,96.3914,VALID,-0.0509425,VALID,19.446,VALID,323,VALID,1.00905,
2001-02-15, 01:17:00,VALID,918.061,VALID,0,VALID,96.8378,VALID,-0.0169808,VALID,19.4495,VALID,322,VALID,1.17989,
2001-02-15, 01:18:00,VALID,918.06,VALID,0,VALID,97.354,VALID,-0.0509425,VALID,19.4686,VALID,320,VALID,1.0502,
2001-02-15, 01:19:00,VALID,918.051,VALID,0,VALID,97.6287,VALID,-0.0509425,VALID,19.4751,VALID,308,VALID,0.544975,
2001-02-15, 01:20:00,VALID,918.031,VALID,0,VALID,97.7419,VALID,-0.0849042,VALID,19.4786,VALID,265,VALID,0.563477,
2001-02-15, 01:21:00,VALID,918.02,VALID,0,VALID,97.6707,VALID,-0.0169808,VALID,19.4624,VALID,232,VALID,0.895232,
2001-02-15, 01:22:00,VALID,917.983,VALID,0,VALID,97.6211,VALID,0,VALID,19.4331,VALID,201,VALID,0.473479,
2001-02-15, 01:23:00,VALID,917.979,VALID,0,VALID,97.5906,VALID,0.0679233,VALID,19.4157,VALID,231,VALID,0.788061,
2001-02-15, 01:24:00,VALID,917.967,VALID,0,VALID,97.5511,VALID,0.0679233,VALID,19.4155,VALID,227,VALID,1.06661,
2001-02-15, 01:25:00,VALID,917.983,VALID,0,VALID,97.4113,VALID,0.0509425,VALID,19.3993,VALID,231,VALID,0.634615,
2001-02-15, 01:26:00,VALID,917.973,VALID,0,VALID,97.3057,VALID,0.0849042,VALID,19.3772,VALID,214,VALID,0.49375,
2001-02-15, 01:27:00,VALID,917.991,VALID,0,VALID,97.2256,VALID,0.0339617,VALID,19.361,VALID,203,VALID,0.694679,
2001-02-15, 01:28:00,VALID,918.001,VALID,0,VALID,97.1646,VALID,0.0679233,VALID,19.3481,VALID,205,VALID,0.705273,
2001-02-15, 01:29:00,VALID,918.006,VALID,0,VALID,97.148,VALID,0.0509425,VALID,19.329,VALID,202,VALID,0.648237,
2001-02-15, 01:30:00,VALID,918.042,VALID,0,VALID,97.1671,VALID,0.0339617,VALID,19.3191,VALID,190,VALID,0.308594,
2001-02-15, 01:31:00,VALID,918.057,VALID,0,VALID,97.1074,VALID,0.101885,VALID,19.3027,VALID,182,VALID,0.0276442,
2001-02-15, 01:32:00,VALID,918.081,VALID,0,VALID,97.143,VALID,0.0169808,VALID,19.3188,VALID,148,VALID,0,
2001-02-15, 01:33:00,VALID,918.098,VALID,0,VALID,97.1569,VALID,0.0679233,VALID,19.3412,VALID,137,VALID,0,
2001-02-15, 01:34:00,VALID,918.1,VALID,0,VALID,97.0794,VALID,0.0849042,VALID,19.3603,VALID,132,VALID,0.0984375,
2001-02-15, 01:35:00,VALID,918.1,VALID,0,VALID,97.0005,VALID,0.0339617,VALID,19.3929,VALID,25,VALID,0.387458,
2001-02-15, 01:36:00,VALID,918.111,VALID,0,VALID,96.9459,VALID,0.118866,VALID,19.4316,VALID,330,VALID,0.389258,
2001-02-15, 01:37:00,VALID,918.105,VALID,0,VALID,96.9179,VALID,0.0849042,VALID,19.4709,VALID,318,VALID,0.126603,
2001-02-15, 01:38:00,VALID,918.088,VALID,0,VALID,96.6915,VALID,0,VALID,19.4997,VALID,2,VALID,0.319696,
2001-02-15, 01:39:00,VALID,918.085,VALID,0,VALID,96.1867,VALID,0.0679233,VALID,19.4865,VALID,100,VALID,0.441907,
2001-02-15, 01:40:00,VALID,918.082,VALID,0,VALID,95.8841,VALID,0.0509425,VALID,19.451,VALID,100,VALID,0.0711349,
2001-02-15, 01:41:00,VALID,918.071,VALID,0,VALID,95.8307,VALID,0.0849042,VALID,19.4644,VALID,101,VALID,0.119391,
2001-02-15, 01:42:00,VALID,918.067,VALID,0,VALID,95.6654,VALID,0.0169808,VALID,19.4614,VALID,108,VALID,0.237891,
2001-02-15, 01:43:00,VALID,918.068,VALID,0,VALID,95.6971,VALID,0.0339617,VALID,19.4746,VALID,108,VALID,0.0502534,
2001-02-15, 01:44:00,VALID,918.046,VALID,0,VALID,95.6298,VALID,0,VALID,19.4676,VALID,108,VALID,0,
2001-02-15, 01:45:00,VALID,918.038,VALID,0,VALID,95.7022,VALID,0.0509425,VALID,19.4739,VALID,108,VALID,0,
2001-02-15, 01:46:00,VALID,918.015,VALID,0,VALID,95.7175,VALID,0.0509425,VALID,19.4644,VALID,108,VALID,0,
2001-02-15, 01:47:00,VALID,918.002,VALID,0,VALID,95.7366,VALID,0.0339617,VALID,19.4679,VALID,180,VALID,0.194712,
2001-02-15, 01:48:00,VALID,918.01,VALID,0,VALID,95.6666,VALID,0.0169808,VALID,19.455,VALID,220,VALID,0.418174,
2001-02-15, 01:49:00,VALID,917.999,VALID,0,VALID,95.7035,VALID,0.0169808,VALID,19.4321,VALID,201,VALID,0.0666016,
2001-02-15, 01:50:00,VALID,918.001,VALID,0,VALID,95.8357,VALID,0.0169808,VALID,19.4326,VALID,202,VALID,0.160547,
2001-02-15, 01:51:00,VALID,917.998,VALID,0,VALID,95.8879,VALID,0,VALID,19.416,VALID,206,VALID,0.149071,
2001-02-15, 01:52:00,VALID,917.989,VALID,0,VALID,95.9604,VALID,0.0169808,VALID,19.3933,VALID,211,VALID,0,
2001-02-15, 01:53:00,VALID,917.987,VALID,0,VALID,96.0392,VALID,-0.0679233,VALID,19.398,VALID,211,VALID,0,
2001-02-15, 01:54:00,VALID,917.972,VALID,0,VALID,95.9985,VALID,-0.0849042,VALID,19.3921,VALID,211,VALID,0,
2001-02-15, 01:55:00,VALID,917.955,VALID,0,VALID,95.6717,VALID,-0.0849042,VALID,19.3334,VALID,201,VALID,0,
2001-02-15, 01:56:00,VALID,917.949,VALID,0,VALID,95.6857,VALID,-0.0509425,VALID,19.3074,VALID,177,VALID,0,
2001-02-15, 01:57:00,VALID,917.932,VALID,0,VALID,96.1727,VALID,-0.0509425,VALID,19.324,VALID,177,VALID,0,
2001-02-15, 01:58:00,VALID,917.925,VALID,0,VALID,96.2516,VALID,-0.0849042,VALID,19.327,VALID,177,VALID,0,
2001-02-15, 01:59:00,VALID,917.901,VALID,0,VALID,96.1816,VALID,-0.0509425,VALID,19.324,VALID,177,VALID,0,
2001-02-15, 02:00:00,VALID,917.885,VALID,0,VALID,96.3965,VALID,-0.0679233,VALID,19.3009,VALID,196,VALID,0.717383,
2001-02-15, 02:01:00,VALID,917.851,VALID,0,VALID,96.7195,VALID,-0.0679233,VALID,19.3237,VALID,212,VALID,1.08373,
2001-02-15, 02:02:00,VALID,917.81,VALID,0,VALID,96.7208,VALID,-0.0509425,VALID,19.3528,VALID,217,VALID,1.13692,
2001-02-15, 02:03:00,VALID,917.793,VALID,0,VALID,96.5885,VALID,-0.0339617,VALID,19.3717,VALID,216,VALID,1.0621,
2001-02-15, 02:04:00,VALID,917.798,VALID,0,VALID,96.2236,VALID,-0.0679233,VALID,19.3819,VALID,221,VALID,1.11493,
2001-02-15, 02:05:00,VALID,917.802,VALID,0,VALID,96.2007,VALID,-0.0339617,VALID,19.3812,VALID,216,VALID,1.22776,
2001-02-15, 02:06:00,VALID,917.801,VALID,0,VALID,96.0494,VALID,-0.0169808,VALID,19.398,VALID,229,VALID,1.22617,
2001-02-15, 02:07:00,VALID,917.795,VALID,0,VALID,95.9909,VALID,-0.0339617,VALID,19.3983,VALID,219,VALID,1.3636,
2001-02-15, 02:08:00,VALID,917.773,VALID,0,VALID,96.0761,VALID,-0.0679233,VALID,19.3493,VALID,211,VALID,0.913086,
2001-02-15, 02:09:00,VALID,917.763,VALID,0,VALID,96.1524,VALID,-0.0169808,VALID,19.2942,VALID,209,VALID,0.608974,
2001-02-15, 02:10:00,VALID,917.754,VALID,0,VALID,96.1867,VALID,-0.0509425,VALID,19.2619,VALID,158,VALID,0.638775,
2001-02-15, 02:11:00,VALID,917.758,VALID,0,VALID,96.2452,VALID,-0.0509425,VALID,19.2363,VALID,162,VALID,0.635417,
2001-02-15, 02:12:00,VALID,917.761,VALID,0,VALID,96.4436,VALID,-0.0339617,VALID,19.2238,VALID,150,VALID,1.06517,
2001-02-15, 02:13:00,VALID,917.76,VALID,0,VALID,96.7538,VALID,-0.0339617,VALID,19.2104,VALID,171,VALID,0.90605,
2001-02-15, 02:14:00,VALID,917.75,VALID,0,VALID,96.8836,VALID,-0.0679233,VALID,19.2331,VALID,185,VALID,0.774414,
2001-02-15, 02:15:00,VALID,917.755,VALID,0,VALID,96.9281,VALID,-0.0169808,VALID,19.2363,VALID,174,VALID,0.839105,
2001-02-15, 02:16:00,VALID,917.762,VALID,0,VALID,96.8975,VALID,-0.0339617,VALID,19.2492,VALID,187,VALID,0.731836,
2001-02-15, 02:17:00,VALID,917.75,VALID,0,VALID,96.7678,VALID,-0.0169808,VALID,19.2658,VALID,189,VALID,0.90004,
2001-02-15, 02:18:00,VALID,917.721,VALID,0,VALID,96.7322,VALID,-0.0509425,VALID,19.2557,VALID,184,VALID,0.848684,
2001-02-15, 02:19:00,VALID,917.698,VALID,0,VALID,96.6585,VALID,-0.0339617,VALID,19.2656,VALID,195,VALID,0.867989,
2001-02-15, 02:20:00,VALID,917.663,VALID,0,VALID,96.5822,VALID,-0.0169808,VALID,19.2691,VALID,200,VALID,0.804071,
2001-02-15, 02:21:00,VALID,917.636,VALID,0,VALID,96.4995,VALID,-0.0679233,VALID,19.2688,VALID,196,VALID,0.830929,
2001-02-15, 02:22:00,VALID,917.618,VALID,0,VALID,96.3813,VALID,-0.0679233,VALID,19.2651,VALID,206,VALID,0.698047,
2001-02-15, 02:23:00,VALID,917.601,VALID,0,VALID,96.3126,VALID,0.0339617,VALID,19.2676,VALID,210,VALID,0.547508,
2001-02-15, 02:24:00,VALID,917.598,VALID,0,VALID,96.3202,VALID,0.0679233,VALID,19.2641,VALID,214,VALID,0.610742,
2001-02-15, 02:25:00,VALID,917.59,VALID,0,VALID,96.338,VALID,0.0169808,VALID,19.2671,VALID,223,VALID,0.635216,
2001-02-15, 02:26:00,VALID,917.578,VALID,0,VALID,96.3342,VALID,0.0849042,VALID,19.2708,VALID,227,VALID,0.644531,
2001-02-15, 02:27:00,VALID,917.568,VALID,0,VALID,96.3635,VALID,0,VALID,19.2803,VALID,220,VALID,0.76863,
2001-02-15, 02:28:00,VALID,917.544,VALID,0,VALID,96.2948,VALID,0,VALID,19.2937,VALID,201,VALID,0.609992,
2001-02-15, 02:29:00,VALID,917.513,VALID,0,VALID,96.1091,VALID,0,VALID,19.3044,VALID,178,VALID,1.1262,
2001-02-15, 02:30:00,VALID,917.497,VALID,0,VALID,96.0278,VALID,-0.0509425,VALID,19.3081,VALID,192,VALID,0.992383,
2001-02-15, 02:31:00,VALID,917.48,VALID,0,VALID,95.9006,VALID,0,VALID,19.3141,VALID,199,VALID,0.809122,
2001-02-15, 02:32:00,VALID,917.466,VALID,0,VALID,95.7226,VALID,-0.0679233,VALID,19.3076,VALID,215,VALID,0.542578,
2001-02-15, 02:33:00,VALID,917.452,VALID,0,VALID,95.7976,VALID,-0.0679233,VALID,19.3141,VALID,203,VALID,0.605769,
2001-02-15, 02:34:00,VALID,917.439,VALID,0,VALID,95.7874,VALID,-0.0849042,VALID,19.3275,VALID,207,VALID,0.106908,
2001-02-15, 02:35:00,VALID,917.404,VALID,0,VALID,95.5522,VALID,-0.0509425,VALID,19.3108,VALID,203,VALID,0.288662,
2001-02-15, 02:36:00,VALID,917.398,VALID,0,VALID,95.5433,VALID,-0.0849042,VALID,19.3076,VALID,204,VALID,0.206003,
2001-02-15, 02:37:00,VALID,917.383,VALID,0,VALID,95.4937,VALID,-0.0509425,VALID,19.2979,VALID,208,VALID,0,
2001-02-15, 02:38:00,VALID,917.379,VALID,0,VALID,95.425,VALID,-0.0169808,VALID,19.3076,VALID,200,VALID,0,
2001-02-15, 02:39:00,VALID,917.373,VALID,0,VALID,95.3996,VALID,-0.0849042,VALID,19.3145,VALID,200,VALID,0,
2001-02-15, 02:40:00,VALID,917.363,VALID,0,VALID,95.3462,VALID,-0.0849042,VALID,19.3175,VALID,200,VALID,0,
2001-02-15, 02:41:00,VALID,917.354,VALID,0,VALID,95.1084,VALID,-0.0849042,VALID,19.3148,VALID,200,VALID,0,
2001-02-15, 02:42:00,VALID,917.345,VALID,0,VALID,95.0156,VALID,-0.0509425,VALID,19.2788,VALID,183,VALID,0,
2001-02-15, 02:43:00,VALID,917.333,VALID,0,VALID,95.3767,VALID,-0.0169808,VALID,19.2654,VALID,168,VALID,0,
2001-02-15, 02:44:00,VALID,917.312,VALID,0,VALID,95.4886,VALID,-0.0169808,VALID,19.2817,VALID,171,VALID,0,
2001-02-15, 02:45:00,VALID,917.312,VALID,0,VALID,95.378,VALID,-0.0849042,VALID,19.2984,VALID,175,VALID,0,
2001-02-15, 02:46:00,VALID,917.318,VALID,0,VALID,95.3843,VALID,-0.0509425,VALID,19.2852,VALID,184,VALID,0,
2001-02-15, 02:47:00,VALID,917.32,VALID,0,VALID,95.289,VALID,-0.0849042,VALID,19.3145,VALID,206,VALID,0,
2001-02-15, 02:48:00,VALID,917.319,VALID,0,VALID,94.8986,VALID,-0.0339617,VALID,19.3342,VALID,252,VALID,0,
2001-02-15, 02:49:00,VALID,917.319,VALID,0,VALID,94.8172,VALID,-0.0679233,VALID,19.3242,VALID,252,VALID,0.446314,
2001-02-15, 02:50:00,VALID,917.313,VALID,0,VALID,94.7269,VALID,-0.0679233,VALID,19.3245,VALID,252,VALID,0.515008,
2001-02-15, 02:51:00,VALID,917.313,VALID,0,VALID,94.2145,VALID,-0.0849042,VALID,19.2792,VALID,252,VALID,0.701723,
2001-02-15, 02:52:00,VALID,917.3,VALID,0,VALID,94.2386,VALID,-0.0509425,VALID,19.2276,VALID,252,VALID,0.501234,
2001-02-15, 02:53:00,VALID,917.268,VALID,0,VALID,94.4205,VALID,0,VALID,19.171,VALID,252,VALID,0.521835,
2001-02-15, 02:54:00,VALID,917.258,VALID,0,VALID,94.5362,VALID,0.0169808,VALID,19.1128,VALID,252,VALID,0.467187,
2001-02-15, 02:55:00,VALID,917.232,VALID,0,VALID,94.7994,VALID,0.0339617,VALID,19.0512,VALID,252,VALID,0.324958,
2001-02-15, 02:56:00,VALID,917.203,VALID,0,VALID,94.924,VALID,0,VALID,19.0164,VALID,250,VALID,0.127734,
2001-02-15, 02:57:00,VALID,917.194,VALID,0,VALID,95.4174,VALID,0.0339617,VALID,18.9742,VALID,213,VALID,0.487981,
2001-02-15, 02:58:00,VALID,917.181,VALID,0,VALID,95.5598,VALID,0.0169808,VALID,18.968,VALID,207,VALID,0.152755,
2001-02-15, 02:59:00,VALID,917.167,VALID,0,VALID,95.2317,VALID,0,VALID,18.9029,VALID,207,VALID,0,
2001-02-15, 03:00:00,VALID,917.164,VALID,0,VALID,95.5433,VALID,0,VALID,18.8805,VALID,207,VALID,0,
2001-02-15, 03:01:00,VALID,917.126,VALID,0,VALID,95.6043,VALID,0,VALID,18.8579,VALID,207,VALID,0,
2001-02-15, 03:02:00,VALID,917.118,VALID,0,VALID,96.0227,VALID,0,VALID,18.8514,VALID,207,VALID,0,
2001-02-15, 03:03:00,VALID,917.109,VALID,0,VALID,96.3088,VALID,0.0169808,VALID,18.8874,VALID,221,VALID,0,
2001-02-15, 03:04:00,VALID,917.107,VALID,0,VALID,96.3584,VALID,0.0169808,VALID,18.9324,VALID,239,VALID,0,
2001-02-15, 03:05:00,VALID,917.115,VALID,0,VALID,96.0863,VALID,0.0169808,VALID,18.9548,VALID,239,VALID,0,
2001-02-15, 03:06:00,VALID,917.128,VALID,0,VALID,95.3907,VALID,0,VALID,18.9329,VALID,239,VALID,0,
2001-02-15, 03:07:00,VALID,917.127,VALID,0,VALID,95.4301,VALID,0,VALID,18.9066,VALID,226,VALID,0.144431,
2001-02-15, 03:08:00,VALID,917.114,VALID,0,VALID,95.7595,VALID,0,VALID,18.9071,VALID,198,VALID,0.448191,
2001-02-15, 03:09:00,VALID,917.104,VALID,0,VALID,95.809,VALID,0,VALID,18.8909,VALID,156,VALID,0.8125,
2001-02-15, 03:10:00,VALID,917.096,VALID,0,VALID,95.8014,VALID,0,VALID,18.8614,VALID,149,VALID,0.529492,
2001-02-15, 03:11:00,VALID,917.083,VALID,0,VALID,95.7378,VALID,0.0679233,VALID,18.8551,VALID,149,VALID,0.0428632,
2001-02-15, 03:12:00,VALID,917.076,VALID,0,VALID,95.79,VALID,0.0679233,VALID,18.8288,VALID,149,VALID,0,
2001-02-15, 03:13:00,VALID,917.085,VALID,0,VALID,96.0761,VALID,0.0509425,VALID,18.8254,VALID,149,VALID,0,
2001-02-15, 03:14:00,VALID,917.091,VALID,0,VALID,95.7734,VALID,0,VALID,18.7935,VALID,149,VALID,0,
2001-02-15, 03:15:00,VALID,917.086,VALID,0,VALID,95.6946,VALID,0.0169808,VALID,18.761,VALID,149,VALID,0,
2001-02-15, 03:16:00,VALID,917.08,VALID,0,VALID,95.9731,VALID,0,VALID,18.7744,VALID,149,VALID,0,
2001-02-15, 03:17:00,VALID,917.061,VALID,0,VALID,96.3177,VALID,0,VALID,18.7873,VALID,152,VALID,0,
2001-02-15, 03:18:00,VALID,917.05,VALID,0,VALID,96.1066,VALID,0,VALID,18.8067,VALID,177,VALID,0.309961,
2001-02-15, 03:19:00,VALID,917.046,VALID,0,VALID,95.673,VALID,0,VALID,18.765,VALID,182,VALID,0.497044,
2001-02-15, 03:20:00,VALID,917.047,VALID,0,VALID,95.9756,VALID,0.0169808,VALID,18.7324,VALID,176,VALID,0.84375,
2001-02-15, 03:21:00,VALID,917.045,VALID,0,VALID,96.9141,VALID,0.0169808,VALID,18.7908,VALID,174,VALID,0.840545,
2001-02-15, 03:22:00,VALID,917.042,VALID,0,VALID,96.633,VALID,-0.0169808,VALID,18.8355,VALID,165,VALID,0.990132,
2001-02-15, 03:23:00,VALID,917.038,VALID,0,VALID,96.5822,VALID,-0.0679233,VALID,18.8889,VALID,162,VALID,0.65645,
2001-02-15, 03:24:00,VALID,917.024,VALID,0,VALID,96.2312,VALID,-0.0339617,VALID,18.8951,VALID,165,VALID,0.121505,
2001-02-15, 03:25:00,VALID,917.003,VALID,0,VALID,96.0774,VALID,-0.0509425,VALID,18.8951,VALID,178,VALID,0,
2001-02-15, 03:26:00,VALID,916.97,VALID,0,VALID,96.1091,VALID,-0.0509425,VALID,18.8986,VALID,203,VALID,0.215039,
2001-02-15, 03:27:00,VALID,916.947,VALID,0,VALID,95.94,VALID,-0.0679233,VALID,18.8953,VALID,214,VALID,0.300676,
2001-02-15, 03:28:00,VALID,916.924,VALID,0,VALID,95.7658,VALID,-0.0849042,VALID,18.8693,VALID,214,VALID,0.364453,
2001-02-15, 03:29:00,VALID,916.906,VALID,0,VALID,95.8841,VALID,-0.0849042,VALID,18.8591,VALID,214,VALID,0.282051,
2001-02-15, 03:30:00,VALID,916.913,VALID,0,VALID,96.2121,VALID,-0.0339617,VALID,18.8695,VALID,209,VALID,0.485197,
2001-02-15, 03:31:00,VALID,916.904,VALID,0,VALID,96.3062,VALID,-0.0509425,VALID,18.8755,VALID,207,VALID,0.512821,
2001-02-15, 03:32:00,VALID,916.898,VALID,0,VALID,96.3736,VALID,-0.0679233,VALID,18.8722,VALID,209,VALID,0.610609,
2001-02-15, 03:33:00,VALID,916.881,VALID,0,VALID,96.7017,VALID,-0.0849042,VALID,18.8891,VALID,207,VALID,0.764423,